Location: Schommer Observatory
(40.5200°N, 74.4500°W)
Time: 19:28:59
(UTC-04:00)

Mayak - Visible Passes

Search period start: 19 July 2018 00:00
Search period end: 29 July 2018 00:00
Orbit: 582 x 605 km, 97.6° (Epoch: 19 July)

Date Brightness Start Highest point End Pass type
(mag) Time Alt. Az. Time Alt. Az. Time Alt. Az.
19 Jul 0.0 00:42:59 10° N 00:46:01 38° NW 00:46:01 38° NW visible
19 Jul 1.0 23:17:32 10° NE 23:18:36 14° ENE 23:18:36 14° ENE visible
20 Jul 0.3 00:52:16 10° N 00:55:13 32° NW 00:55:13 32° NW visible
20 Jul 0.9 23:26:18 10° NE 23:27:49 17° ENE 23:27:49 17° ENE visible
21 Jul 0.5 01:01:36 10° N 01:04:25 27° NW 01:04:25 27° NW visible
21 Jul 0.7 23:35:11 10° NE 23:37:01 21° ENE 23:37:01 21° ENE visible
22 Jul 0.8 01:10:58 10° NNW 01:13:37 22° NW 01:13:37 22° NW visible
22 Jul 0.5 23:44:08 10° NNE 23:46:12 24° NE 23:46:12 24° NE visible
23 Jul 1.0 01:20:26 10° NNW 01:22:49 18° WNW 01:22:49 18° WNW visible
23 Jul 0.3 23:53:09 10° NNE 23:55:24 28° NE 23:55:24 28° NE visible
24 Jul 1.2 01:30:01 10° NNW 01:32:01 15° WNW 01:32:01 15° WNW visible
25 Jul 0.2 00:02:12 10° NNE 00:04:36 32° NE 00:04:36 32° NE visible
25 Jul 1.4 01:39:48 10° NW 01:41:12 12° WNW 01:41:12 12° WNW visible
26 Jul 0.2 00:11:19 10° NNE 00:13:47 35° NNE 00:13:47 35° NNE visible
27 Jul 0.2 00:20:27 10° N 00:22:59 36° N 00:22:59 36° N visible
28 Jul 0.3 00:29:38 10° N 00:32:10 35° N 00:32:10 35° N visible
